| time (UTC) | temp F | wind direction | speed knots | gust knots | rain 1hr in | rain 24hr in | rain mn in | humidity % | barometer mb |
| 20260906115358 | 74 | 239 | 0.0 | 0.0 | 0.00 | 0.00 | 0.00 | 99 | 1010.8 |
| 20260906114856 | 74 | 222 | 0.0 | 0.0 | 0.00 | 0.00 | 0.00 | 99 | 1010.8 |
| 20260906114352 | 74 | 222 | 0.0 | 0.0 | 0.00 | 0.00 | 0.00 | 99 | 1010.8 |
| 20260906113847 | 74 | 222 | 0.0 | 0.0 | 0.00 | 0.00 | 0.00 | 99 | 1010.8 |
| 20260906113346 | 74 | 222 | 0.0 | 0.0 | 0.00 | 0.00 | 0.00 | 99 | 1010.8 |
| 20260906112841 | 74 | 222 | 0.0 | 0.0 | 0.00 | 0.00 | 0.00 | 99 | 1010.8 |
| 20260906112338 | 74 | 222 | 0.0 | 0.0 | 0.00 | 0.00 | 0.00 | 99 | 1010.8 |
| 20260906111838 | 74 | 282 | 0.0 | 0.0 | 0.00 | 0.00 | 0.00 | 99 | 1010.8 |
| 20260906111338 | 74 | 270 | 0.0 | 0.0 | 0.00 | 0.00 | 0.00 | 99 | 1010.8 |
| 20260906110832 | 74 | 270 | 0.0 | 0.0 | 0.00 | 0.00 | 0.00 | 99 | 1010.8 |
| 20260906110328 | 74 | 258 | 0.0 | 0.0 | 0.00 | 0.00 | 0.00 | 99 | 1010.8 |
| 20260906105827 | 74 | 270 | 0.0 | 0.0 | 0.00 | 0.00 | 0.00 | 99 | 1010.5 |
| 20260906105323 | 74 | 299 | 0.0 | 0.0 | 0.00 | 0.00 | 0.00 | 99 | 1010.5 |
| 20260906104819 | 74 | 299 | 0.0 | 0.0 | 0.00 | 0.00 | 0.00 | 99 | 1010.5 |
| 20260906104317 | 74 | 299 | 0.0 | 0.0 | 0.00 | 0.00 | 0.00 | 99 | 1010.5 |
| 20260906103810 | 74 | 299 | 0.0 | 0.0 | 0.00 | 0.00 | 0.00 | 99 | 1010.5 |
| 20260906103309 | 74 | 222 | 0.0 | 0.0 | 0.00 | 0.00 | 0.00 | 99 | 1010.5 |
| 20260906102805 | 74 | 222 | 0.0 | 0.0 | 0.00 | 0.00 | 0.00 | 99 | 1010.5 |
| 20260906102306 | 74 | 234 | 0.0 | 0.0 | 0.00 | 0.00 | 0.00 | 99 | 1010.5 |
| 20260906101759 | 74 | 234 | 0.0 | 0.0 | 0.00 | 0.00 | 0.00 | 98 | 1010.5 |
| 20260906101254 | 74 | 221 | 0.0 | 0.0 | 0.00 | 0.00 | 0.00 | 98 | 1009.8 |
| 20260906100749 | 74 | 221 | 0.0 | 0.0 | 0.00 | 0.00 | 0.00 | 98 | 1009.8 |
| 20260906100249 | 74 | 216 | 0.0 | 0.0 | 0.00 | 0.00 | 0.00 | 98 | 1009.8 |
| 20260906095744 | 74 | 216 | 0.0 | 0.0 | 0.00 | 0.00 | 0.00 | 98 | 1009.8 |
| 20260906095239 | 74 | 246 | 0.0 | 0.0 | 0.00 | 0.00 | 0.00 | 98 | 1009.8 |
| 20260906094738 | 74 | 246 | 0.0 | 0.0 | 0.00 | 0.00 | 0.00 | 98 | 1009.8 |
| 20260906094234 | 74 | 246 | 0.0 | 0.0 | 0.00 | 0.00 | 0.00 | 98 | 1009.8 |
| 20260906093730 | 74 | 246 | 0.0 | 0.0 | 0.00 | 0.00 | 0.00 | 97 | 1009.8 |
| 20260906093226 | 74 | 246 | 0.0 | 0.0 | 0.00 | 0.00 | 0.00 | 97 | 1009.8 |
| 20260906092721 | 74 | 222 | 0.0 | 0.0 | 0.00 | 0.00 | 0.00 | 97 | 1009.8 |
| 20260906092220 | 74 | 210 | 0.0 | 0.0 | 0.00 | 0.00 | 0.00 | 97 | 1009.8 |
| 20260906091716 | 74 | 210 | 0.0 | 0.0 | 0.00 | 0.00 | 0.00 | 97 | 1009.8 |
| 20260906091207 | 75 | 210 | 0.0 | 0.0 | 0.00 | 0.00 | 0.00 | 96 | 1009.8 |
| 20260906090703 | 75 | 210 | 0.0 | 0.0 | 0.00 | 0.00 | 0.00 | 96 | 1009.8 |
| 20260906090202 | 75 | 210 | 0.0 | 0.0 | 0.00 | 0.00 | 0.00 | 96 | 1009.8 |
| 20260906085701 | 75 | 210 | 0.0 | 0.0 | 0.00 | 0.00 | 0.00 | 95 | 1009.8 |
| 20260906085200 | 75 | 210 | 0.0 | 0.0 | 0.00 | 0.00 | 0.00 | 95 | 1009.8 |
| 20260906084655 | 75 | 264 | 0.0 | 0.0 | 0.00 | 0.00 | 0.00 | 95 | 1009.8 |
| 20260906084155 | 75 | 264 | 0.0 | 0.0 | 0.00 | 0.00 | 0.00 | 94 | 1009.5 |
| 20260906083650 | 75 | 293 | 0.0 | 0.0 | 0.00 | 0.00 | 0.00 | 94 | 1009.5 |
| 20260906083145 | 75 | 271 | 0.0 | 0.0 | 0.00 | 0.00 | 0.00 | 94 | 1009.5 |
| 20260906082640 | 76 | 232 | 0.0 | 0.0 | 0.00 | 0.00 | 0.00 | 95 | 1009.5 |
| 20260906082136 | 76 | 242 | 0.0 | 0.0 | 0.00 | 0.00 | 0.00 | 94 | 1009.5 |
| 20260906081632 | 76 | 231 | 0.0 | 0.0 | 0.00 | 0.00 | 0.00 | 94 | 1009.5 |
| 20260906081126 | 76 | 231 | 0.0 | 0.0 | 0.00 | 0.00 | 0.00 | 94 | 1009.8 |
| 20260906080623 | 76 | 231 | 0.0 | 0.0 | 0.00 | 0.00 | 0.00 | 93 | 1009.8 |
| 20260906080119 | 76 | 234 | 0.0 | 0.0 | 0.00 | 0.00 | 0.00 | 93 | 1009.8 |
| 20260906075618 | 76 | 252 | 0.0 | 0.0 | 0.00 | 0.00 | 0.00 | 94 | 1009.8 |
| 20260906075113 | 76 | 293 | 0.0 | 0.0 | 0.00 | 0.00 | 0.00 | 95 | 1009.8 |
| 20260906074609 | 76 | 314 | 0.0 | 0.0 | 0.00 | 0.00 | 0.00 | 94 | 1009.8 |
| 20260906074107 | 76 | 246 | 0.0 | 0.0 | 0.00 | 0.00 | 0.00 | 94 | 1010.1 |
| 20260906073602 | 76 | 247 | 0.0 | 0.0 | 0.00 | 0.00 | 0.00 | 94 | 1010.1 |
| 20260906073058 | 76 | 258 | 0.0 | 0.0 | 0.00 | 0.00 | 0.00 | 94 | 1010.1 |
| 20260906072552 | 76 | 270 | 0.0 | 0.0 | 0.00 | 0.00 | 0.00 | 93 | 1010.1 |
| 20260906072049 | 76 | 251 | 0.0 | 0.0 | 0.00 | 0.00 | 0.00 | 94 | 1010.1 |
| 20260906071545 | 76 | 248 | 0.0 | 0.0 | 0.00 | 0.00 | 0.00 | 94 | 1010.1 |
| 20260906071039 | 76 | 270 | 0.0 | 0.0 | 0.00 | 0.00 | 0.00 | 93 | 1010.1 |
| 20260906070536 | 76 | 260 | 0.0 | 0.0 | 0.00 | 0.00 | 0.00 | 93 | 1010.1 |
| 20260906070032 | 76 | 288 | 0.0 | 0.0 | 0.00 | 0.00 | 0.00 | 94 | 1010.5 |
| 20260906065531 | 76 | 292 | 0.0 | 0.0 | 0.00 | 0.00 | 0.00 | 93 | 1010.5 |
| 20260906065027 | 76 | 241 | 0.0 | 0.0 | 0.00 | 0.00 | 0.00 | 93 | 1010.5 |
| 20260906064522 | 76 | 241 | 0.0 | 0.0 | 0.00 | 0.00 | 0.00 | 93 | 1010.8 |
| 20260906064017 | 77 | 243 | 0.0 | 0.0 | 0.00 | 0.00 | 0.00 | 93 | 1010.8 |
| 20260906063512 | 77 | 243 | 0.0 | 0.0 | 0.00 | 0.00 | 0.00 | 93 | 1010.8 |
| 20260906063008 | 77 | 240 | 0.0 | 0.0 | 0.00 | 0.00 | 0.00 | 92 | 1010.8 |
| 20260906062503 | 77 | 240 | 0.0 | 0.0 | 0.00 | 0.00 | 0.00 | 92 | 1010.8 |
| 20260906061957 | 77 | 241 | 0.0 | 0.0 | 0.00 | 0.00 | 0.00 | 92 | 1010.8 |
| 20260906061453 | 77 | 264 | 0.0 | 0.0 | 0.00 | 0.00 | 0.00 | 91 | 1010.8 |
| 20260906060947 | 77 | 264 | 0.0 | 0.0 | 0.00 | 0.00 | 0.00 | 91 | 1010.8 |
| 20260906060444 | 77 | 264 | 0.0 | 0.0 | 0.00 | 0.00 | 0.00 | 92 | 1010.8 |
| 20260906055941 | 77 | 214 | 0.0 | 0.0 | 0.00 | 0.00 | 0.00 | 91 | 1010.5 |
| 20260906055437 | 77 | 244 | 0.0 | 0.0 | 0.00 | 0.00 | 0.00 | 91 | 1010.5 |
| 20260906054932 | 77 | 261 | 0.0 | 0.0 | 0.00 | 0.00 | 0.00 | 91 | 1010.5 |
| 20260906054426 | 77 | 212 | 0.0 | 0.0 | 0.00 | 0.00 | 0.00 | 90 | 1010.5 |
| 20260906053922 | 78 | 211 | 0.0 | 0.0 | 0.00 | 0.00 | 0.00 | 90 | 1010.5 |
| 20260906053418 | 78 | 222 | 0.0 | 0.0 | 0.00 | 0.00 | 0.00 | 90 | 1010.5 |
| 20260906052914 | 78 | 241 | 0.0 | 0.0 | 0.00 | 0.00 | 0.00 | 89 | 1010.5 |
| 20260906052410 | 78 | 277 | 0.0 | 0.0 | 0.00 | 0.00 | 0.00 | 90 | 1010.5 |
| 20260906051907 | 78 | 234 | 0.0 | 0.0 | 0.00 | 0.00 | 0.00 | 89 | 1010.5 |
| 20260906051406 | 78 | 208 | 0.0 | 0.0 | 0.00 | 0.00 | 0.00 | 90 | 1010.8 |
| 20260906050902 | 78 | 206 | 0.0 | 0.0 | 0.00 | 0.00 | 0.00 | 90 | 1010.8 |
| 20260906050357 | 79 | 306 | 0.0 | 0.0 | 0.00 | 0.00 | 0.00 | 89 | 1010.8 |
| 20260906045855 | 79 | 287 | 0.0 | 0.0 | 0.00 | 0.00 | 0.00 | 90 | 1011.2 |
| 20260906045349 | 79 | 294 | 0.0 | 0.0 | 0.00 | 0.00 | 0.00 | 90 | 1011.2 |
| 20260906044846 | 79 | 353 | 0.0 | 0.0 | 0.00 | 0.00 | 0.00 | 90 | 1011.2 |
| 20260906044345 | 79 | 322 | 0.0 | 0.0 | 0.00 | 0.00 | 0.00 | 90 | 1011.5 |
| 20260906043841 | 79 | 246 | 0.0 | 0.0 | 0.00 | 0.00 | 0.00 | 90 | 1011.5 |
| 20260906043337 | 79 | 298 | 0.0 | 0.0 | 0.00 | 0.00 | 0.00 | 90 | 1011.5 |
| 20260906042833 | 80 | 211 | 0.0 | 0.0 | 0.00 | 0.00 | 0.00 | 89 | 1011.2 |
| 20260906042331 | 80 | 244 | 0.0 | 0.0 | 0.00 | 0.00 | 0.00 | 89 | 1011.2 |
| 20260906041827 | 80 | 5 | 0.0 | 0.0 | 0.00 | 0.00 | 0.00 | 89 | 1011.2 |
| 20260906041323 | 80 | 126 | 0.0 | 0.0 | 0.00 | 0.00 | 0.00 | 90 | 1011.2 |
| 20260906040822 | 80 | 242 | 0.0 | 0.0 | 0.00 | 0.00 | 0.00 | 90 | 1011.2 |
| 20260906040318 | 80 | 319 | 0.0 | 0.0 | 0.00 | 0.00 | 0.00 | 90 | 1011.2 |
| 20260906035813 | 81 | 282 | 1.7 | 1.7 | 0.00 | 0.00 | 0.00 | 90 | 1011.2 |
| 20260906035309 | 81 | 313 | 0.0 | 0.0 | 0.00 | 0.00 | 0.00 | 91 | 1011.2 |
| 20260906034804 | 81 | 329 | 1.7 | 1.7 | 0.00 | 0.00 | 0.00 | 91 | 1011.2 |
| 20260906034304 | 82 | 294 | 0.0 | 0.0 | 0.00 | 0.00 | 0.00 | 91 | 1010.8 |
| 20260906033800 | 82 | 240 | 0.0 | 0.0 | 0.00 | 0.00 | 0.00 | 91 | 1010.8 |
| 20260906033259 | 82 | 240 | 0.0 | 0.0 | 0.00 | 0.00 | 0.00 | 92 | 1010.8 |
| 20260906032755 | 82 | 203 | 0.0 | 0.0 | 0.00 | 0.00 | 0.00 | 92 | 1010.8 |
| 20260906032256 | 83 | 294 | 0.0 | 0.0 | 0.00 | 0.00 | 0.00 | 92 | 1010.8 |
| 20260906031751 | 83 | 293 | 0.0 | 0.0 | 0.00 | 0.00 | 0.00 | 92 | 1010.8 |
| 20260906031247 | 83 | 258 | 0.0 | 0.0 | 0.00 | 0.00 | 0.00 | 92 | 1011.2 |
| 20260906030746 | 83 | 230 | 0.0 | 0.0 | 0.00 | 0.00 | 0.00 | 92 | 1011.2 |
| 20260906030241 | 83 | 276 | 0.0 | 0.0 | 0.00 | 0.00 | 0.00 | 91 | 1011.2 |
| 20260906025741 | 83 | 252 | 0.0 | 0.0 | 0.00 | 0.00 | 0.00 | 92 | 1010.8 |
| 20260906025235 | 83 | 253 | 0.0 | 0.0 | 0.00 | 0.00 | 0.00 | 92 | 1010.8 |
| 20260906024734 | 83 | 192 | 0.0 | 0.0 | 0.00 | 0.00 | 0.00 | 92 | 1010.8 |
| 20260906024233 | 83 | 199 | 0.0 | 0.0 | 0.00 | 0.00 | 0.00 | 91 | 1010.5 |
| 20260906023729 | 83 | 298 | 0.0 | 0.0 | 0.00 | 0.00 | 0.00 | 92 | 1010.5 |
| 20260906023225 | 83 | 319 | 0.0 | 0.0 | 0.00 | 0.00 | 0.00 | 92 | 1010.5 |
| 20260906022720 | 83 | 106 | 0.0 | 0.0 | 0.00 | 0.00 | 0.00 | 92 | 1010.5 |
| 20260906022215 | 83 | 222 | 0.0 | 0.0 | 0.00 | 0.00 | 0.00 | 92 | 1010.5 |
| 20260906021711 | 84 | 194 | 0.0 | 0.0 | 0.00 | 0.00 | 0.00 | 92 | 1010.5 |
| 20260906021204 | 84 | 192 | 0.0 | 0.0 | 0.00 | 0.00 | 0.00 | 92 | 1010.8 |
| 20260906020659 | 84 | 286 | 0.0 | 0.0 | 0.00 | 0.00 | 0.00 | 91 | 1010.8 |
| 20260906020154 | 84 | 306 | 1.7 | 1.7 | 0.00 | 0.00 | 0.00 | 92 | 1010.8 |
| 20260906015648 | 84 | 59 | 1.7 | 1.7 | 0.00 | 0.00 | 0.00 | 92 | 1009.5 |
| 20260906015147 | 84 | 180 | 0.0 | 0.0 | 0.00 | 0.00 | 0.00 | 92 | 1009.5 |
| 20260906014647 | 83 | 330 | 0.9 | 0.9 | 0.00 | 0.00 | 0.00 | 92 | 1009.5 |
| 20260906014143 | 83 | 180 | 1.7 | 1.7 | 0.00 | 0.00 | 0.00 | 92 | 1009.1 |
| 20260906013638 | 84 | 192 | 1.7 | 1.7 | 0.00 | 0.00 | 0.00 | 92 | 1009.1 |
| 20260906013133 | 84 | 138 | 0.0 | 0.0 | 0.00 | 0.00 | 0.00 | 92 | 1009.1 |
| 20260906012628 | 84 | 288 | 0.0 | 0.0 | 0.00 | 0.00 | 0.00 | 92 | 1009.8 |
| 20260906012123 | 84 | 204 | 0.0 | 0.0 | 0.00 | 0.00 | 0.00 | 92 | 1009.8 |
| 20260906011619 | 84 | 172 | 0.0 | 0.0 | 0.00 | 0.00 | 0.00 | 92 | 1009.8 |
| 20260906011119 | 84 | 178 | 0.0 | 0.0 | 0.00 | 0.00 | 0.00 | 92 | 1010.5 |
| 20260906010614 | 84 | 192 | 0.0 | 0.0 | 0.00 | 0.00 | 0.00 | 91 | 1010.5 |
| 20260906010110 | 84 | 151 | 1.7 | 1.7 | 0.00 | 0.00 | 0.00 | 90 | 1010.5 |
| 20260906005609 | 84 | 341 | 2.6 | 2.6 | 0.00 | 0.00 | 0.00 | 91 | 1010.8 |
| 20260906005109 | 84 | 235 | 1.7 | 1.7 | 0.00 | 0.00 | 0.00 | 90 | 1010.8 |
| 20260906004608 | 84 | 236 | 0.0 | 0.0 | 0.00 | 0.00 | 0.00 | 90 | 1010.8 |
| 20260906004103 | 84 | 273 | 0.0 | 0.0 | 0.00 | 0.00 | 0.00 | 90 | 1011.2 |
| 20260906003558 | 85 | 318 | 0.0 | 0.0 | 0.00 | 0.00 | 0.00 | 89 | 1011.2 |
| 20260906003054 | 85 | 263 | 0.9 | 0.9 | 0.00 | 0.00 | 0.00 | 89 | 1010.8 |
| 20260906002549 | 85 | 239 | 0.0 | 0.0 | 0.00 | 0.00 | 0.00 | 89 | 1010.8 |
| 20260906002044 | 85 | 276 | 0.0 | 0.0 | 0.00 | 0.00 | 0.00 | 89 | 1010.8 |
| 20260906001539 | 85 | 173 | 0.0 | 0.0 | 0.00 | 0.00 | 0.00 | 89 | 1010.8 |
| 20260906001033 | 85 | 211 | 0.0 | 0.0 | 0.00 | 0.00 | 0.00 | 89 | 1010.8 |
| 20260906000529 | 85 | 251 | 0.0 | 0.0 | 0.00 | 0.00 | 0.00 | 89 | 1010.8 |
| 20260906000024 | 85 | 282 | 0.0 | 0.0 | 0.00 | 0.00 | 0.00 | 89 | 1010.8 |
| 20260905235518 | 85 | 211 | 0.0 | 0.0 | 0.00 | 0.00 | 0.00 | 88 | 1010.8 |
| 20260905235013 | 85 | 108 | 0.0 | 0.0 | 0.00 | 0.00 | 0.00 | 88 | 1010.8 |
| 20260905234508 | 85 | 180 | 0.0 | 0.0 | 0.00 | 0.00 | 0.00 | 87 | 1010.8 |
| 20260905234003 | 86 | 137 | 0.0 | 0.0 | 0.00 | 0.00 | 0.00 | 87 | 1010.8 |
| 20260905233458 | 86 | 22 | 0.0 | 0.0 | 0.00 | 0.00 | 0.00 | 86 | 1010.8 |
| 20260905232956 | 86 | 120 | 0.0 | 0.0 | 0.00 | 0.00 | 0.00 | 86 | 1010.8 |
| 20260905232453 | 87 | 154 | 0.0 | 0.0 | 0.00 | 0.00 | 0.00 | 85 | 1010.8 |
| 20260905231948 | 87 | 174 | 0.0 | 0.0 | 0.00 | 0.00 | 0.00 | 84 | 1010.8 |
| 20260905231444 | 87 | 107 | 1.7 | 1.7 | 0.00 | 0.00 | 0.00 | 84 | 1010.5 |
| 20260905230940 | 87 | 240 | 0.0 | 0.0 | 0.00 | 0.00 | 0.00 | 83 | 1010.5 |
| 20260905230438 | 88 | 210 | 0.0 | 0.0 | 0.00 | 0.00 | 0.00 | 81 | 1010.5 |
| 20260905225937 | 88 | 198 | 0.0 | 0.0 | 0.00 | 0.00 | 0.00 | 80 | 1010.5 |
| 20260905225432 | 89 | 293 | 0.0 | 0.0 | 0.00 | 0.00 | 0.00 | 78 | 1010.5 |
| 20260905224927 | 89 | 262 | 1.7 | 1.7 | 0.00 | 0.00 | 0.00 | 77 | 1010.5 |
| 20260905224423 | 89 | 257 | 0.0 | 0.0 | 0.00 | 0.00 | 0.00 | 78 | 1010.5 |
| 20260905223922 | 89 | 235 | 0.0 | 0.0 | 0.00 | 0.00 | 0.00 | 78 | 1010.5 |
| 20260905223421 | 89 | 97 | 1.7 | 1.7 | 0.00 | 0.00 | 0.00 | 79 | 1010.5 |
| 20260905222921 | 89 | 308 | 0.0 | 0.0 | 0.00 | 0.00 | 0.00 | 79 | 1010.1 |
| 20260905222420 | 89 | 228 | 1.7 | 1.7 | 0.00 | 0.00 | 0.00 | 79 | 1010.1 |
| 20260905221916 | 90 | 43 | 1.7 | 1.7 | 0.00 | 0.00 | 0.00 | 78 | 1010.1 |
| 20260905221413 | 90 | 109 | 2.6 | 3.5 | 0.00 | 0.00 | 0.00 | 78 | 1010.1 |
| 20260905220908 | 90 | 347 | 1.7 | 1.7 | 0.00 | 0.00 | 0.00 | 78 | 1010.1 |
| 20260905220404 | 91 | 94 | 2.6 | 3.5 | 0.00 | 0.00 | 0.00 | 78 | 1010.1 |
| 20260905215903 | 91 | 138 | 0.0 | 0.0 | 0.00 | 0.00 | 0.00 | 77 | 1010.1 |
| 20260905215359 | 91 | 72 | 1.7 | 1.7 | 0.00 | 0.00 | 0.00 | 76 | 1010.1 |
| 20260905214855 | 92 | 179 | 1.7 | 1.7 | 0.00 | 0.00 | 0.00 | 74 | 1010.1 |
| 20260905214350 | 92 | 116 | 1.7 | 1.7 | 0.00 | 0.00 | 0.00 | 73 | 1010.1 |
| 20260905213845 | 93 | 204 | 0.0 | 0.0 | 0.00 | 0.00 | 0.00 | 72 | 1010.1 |
| 20260905213341 | 93 | 180 | 2.6 | 2.6 | 0.00 | 0.00 | 0.00 | 72 | 1010.1 |
| 20260905212836 | 94 | 160 | 0.9 | 0.9 | 0.00 | 0.00 | 0.00 | 72 | 1009.8 |
| 20260905212336 | 94 | 217 | 1.7 | 1.7 | 0.00 | 0.00 | 0.00 | 70 | 1009.8 |
| 20260905211830 | 96 | 206 | 0.0 | 0.0 | 0.00 | 0.00 | 0.00 | 63 | 1009.8 |
| 20260905211326 | 96 | 204 | 0.0 | 0.0 | 0.00 | 0.00 | 0.00 | 60 | 1009.5 |
| 20260905210822 | 96 | 217 | 0.0 | 0.0 | 0.00 | 0.00 | 0.00 | 59 | 1009.5 |
| 20260905210322 | 96 | 250 | 0.0 | 0.0 | 0.00 | 0.00 | 0.00 | 60 | 1009.5 |
| 20260905205821 | 97 | 330 | 1.7 | 1.7 | 0.00 | 0.00 | 0.00 | 58 | 1009.8 |
| 20260905205316 | 97 | 306 | 1.7 | 1.7 | 0.00 | 0.00 | 0.00 | 56 | 1009.8 |
| 20260905204815 | 97 | 246 | 0.0 | 0.0 | 0.00 | 0.00 | 0.00 | 56 | 1009.8 |
| 20260905204311 | 96 | 330 | 1.7 | 1.7 | 0.00 | 0.00 | 0.00 | 56 | 1009.5 |
| 20260905203810 | 95 | 211 | 2.6 | 2.6 | 0.00 | 0.00 | 0.00 | 58 | 1009.5 |
| 20260905203306 | 95 | 276 | 0.9 | 0.9 | 0.00 | 0.00 | 0.00 | 62 | 1009.5 |
| 20260905202801 | 97 | 281 | 0.0 | 0.0 | 0.00 | 0.00 | 0.00 | 58 | 1009.5 |
| 20260905202256 | 98 | 357 | 0.0 | 0.0 | 0.00 | 0.00 | 0.00 | 58 | 1009.5 |
| 20260905201752 | 98 | 270 | 1.7 | 1.7 | 0.00 | 0.00 | 0.00 | 57 | 1009.5 |
| 20260905201247 | 97 | 120 | 0.0 | 0.0 | 0.00 | 0.00 | 0.00 | 58 | 1009.5 |
| 20260905200742 | 97 | 252 | 0.0 | 0.0 | 0.00 | 0.00 | 0.00 | 57 | 1009.5 |
| 20260905200238 | 97 | 264 | 0.9 | 0.9 | 0.00 | 0.00 | 0.00 | 57 | 1009.5 |
| 20260905195735 | 97 | 173 | 1.7 | 1.7 | 0.00 | 0.00 | 0.00 | 57 | 1009.8 |
| 20260905195230 | 96 | 281 | 1.7 | 1.7 | 0.00 | 0.00 | 0.00 | 59 | 1009.8 |
| 20260905194726 | 95 | 342 | 2.6 | 2.6 | 0.00 | 0.00 | 0.00 | 60 | 1009.8 |
| 20260905194225 | 96 | 33 | 2.6 | 2.6 | 0.00 | 0.00 | 0.00 | 58 | 1010.1 |
| 20260905193719 | 97 | 288 | 1.7 | 1.7 | 0.00 | 0.00 | 0.00 | 58 | 1010.1 |
| 20260905193214 | 97 | 288 | 0.0 | 0.0 | 0.00 | 0.00 | 0.00 | 59 | 1010.1 |
| 20260905192710 | 96 | 263 | 0.9 | 0.9 | 0.00 | 0.00 | 0.00 | 60 | 1010.5 |
| 20260905192206 | 95 | 240 | 0.0 | 0.0 | 0.00 | 0.00 | 0.00 | 59 | 1010.5 |
| 20260905191706 | 95 | 261 | 1.7 | 1.7 | 0.00 | 0.00 | 0.00 | 61 | 1010.5 |
| 20260905191204 | 94 | 352 | 4.3 | 4.3 | 0.00 | 0.00 | 0.00 | 62 | 1010.5 |
| 20260905190703 | 94 | 180 | 0.0 | 0.0 | 0.00 | 0.00 | 0.00 | 66 | 1010.5 |
| 20260905190202 | 94 | 204 | 0.0 | 0.0 | 0.00 | 0.00 | 0.00 | 61 | 1010.5 |
| 20260905185701 | 94 | 216 | 0.9 | 0.9 | 0.00 | 0.00 | 0.00 | 64 | 1010.8 |
| 20260905185155 | 93 | 263 | 0.0 | 0.0 | 0.00 | 0.00 | 0.00 | 67 | 1010.8 |
| 20260905184655 | 94 | 192 | 1.7 | 1.7 | 0.00 | 0.00 | 0.00 | 63 | 1010.8 |
| 20260905184153 | 93 | 330 | 0.0 | 0.0 | 0.00 | 0.00 | 0.00 | 63 | 1011.2 |
| 20260905183648 | 92 | 54 | 0.0 | 0.0 | 0.00 | 0.00 | 0.00 | 65 | 1011.2 |
| 20260905183143 | 93 | 302 | 0.0 | 0.0 | 0.00 | 0.00 | 0.00 | 65 | 1011.2 |
| 20260905182643 | 93 | 294 | 2.6 | 2.6 | 0.00 | 0.00 | 0.00 | 67 | 1011.5 |
| 20260905182143 | 94 | 288 | 0.9 | 0.9 | 0.00 | 0.00 | 0.00 | 64 | 1011.5 |
| 20260905181638 | 96 | 296 | 2.6 | 2.6 | 0.00 | 0.00 | 0.00 | 61 | 1011.5 |
| 20260905181137 | 96 | 252 | 1.7 | 1.7 | 0.00 | 0.00 | 0.00 | 62 | 1011.5 |
| 20260905180632 | 95 | 126 | 1.7 | 1.7 | 0.00 | 0.00 | 0.00 | 64 | 1011.5 |
| 20260905180127 | 95 | 342 | 1.7 | 1.7 | 0.00 | 0.00 | 0.00 | 66 | 1011.5 |
| 20260905175626 | 94 | 174 | 0.0 | 0.0 | 0.00 | 0.00 | 0.00 | 66 | 1011.5 |
| 20260905175122 | 95 | 340 | 1.7 | 1.7 | 0.00 | 0.00 | 0.00 | 63 | 1011.5 |
| 20260905174617 | 94 | 345 | 1.7 | 1.7 | 0.00 | 0.00 | 0.00 | 62 | 1011.5 |
| 20260905174113 | 94 | 72 | 0.9 | 0.9 | 0.00 | 0.00 | 0.00 | 64 | 1012.2 |
| 20260905173609 | 94 | 150 | 1.7 | 1.7 | 0.00 | 0.00 | 0.00 | 65 | 1012.2 |
| 20260905173104 | 94 | 300 | 1.7 | 1.7 | 0.00 | 0.00 | 0.00 | 64 | 1012.2 |
| 20260905172603 | 93 | 186 | 0.9 | 0.9 | 0.00 | 0.00 | 0.00 | 64 | 1012.2 |
| 20260905172058 | 94 | 66 | 0.0 | 0.0 | 0.00 | 0.00 | 0.00 | 63 | 1012.2 |
| 20260905171554 | 93 | 223 | 1.7 | 1.7 | 0.00 | 0.00 | 0.00 | 63 | 1012.2 |
| 20260905171050 | 91 | 230 | 0.0 | 0.0 | 0.00 | 0.00 | 0.00 | 64 | 1012.2 |
| 20260905170547 | 91 | 178 | 1.7 | 1.7 | 0.00 | 0.00 | 0.00 | 72 | 1012.2 |
| 20260905170042 | 91 | 210 | 0.0 | 0.0 | 0.00 | 0.00 | 0.00 | 69 | 1012.2 |
| 20260905165536 | 92 | 211 | 0.0 | 0.0 | 0.00 | 0.00 | 0.00 | 70 | 1012.5 |
| 20260905165026 | 92 | 288 | 0.0 | 0.0 | 0.00 | 0.00 | 0.00 | 67 | 1012.5 |
| 20260905164526 | 92 | 50 | 1.7 | 1.7 | 0.00 | 0.00 | 0.00 | 69 | 1012.5 |
| 20260905164021 | 92 | 246 | 0.0 | 0.0 | 0.00 | 0.00 | 0.00 | 66 | 1012.9 |
| 20260905163517 | 91 | 322 | 0.0 | 0.0 | 0.00 | 0.00 | 0.00 | 69 | 1012.9 |
| 20260905163013 | 91 | 240 | 1.7 | 1.7 | 0.00 | 0.00 | 0.00 | 70 | 1012.9 |
| 20260905162508 | 93 | 228 | 0.9 | 0.9 | 0.00 | 0.00 | 0.00 | 67 | 1013.2 |
| 20260905162003 | 92 | 270 | 1.7 | 1.7 | 0.00 | 0.00 | 0.00 | 68 | 1013.2 |
| 20260905161503 | 92 | 174 | 0.9 | 0.9 | 0.00 | 0.00 | 0.00 | 71 | 1013.5 |
| 20260905161000 | 91 | 246 | 0.0 | 0.0 | 0.00 | 0.00 | 0.00 | 70 | 1013.5 |
| 20260905160454 | 91 | 280 | 1.7 | 1.7 | 0.00 | 0.00 | 0.00 | 71 | 1013.5 |
| 20260905155954 | 91 | 66 | 1.7 | 1.7 | 0.00 | 0.00 | 0.00 | 71 | 1013.5 |
| 20260905155449 | 90 | 288 | 1.7 | 1.7 | 0.00 | 0.00 | 0.00 | 70 | 1013.5 |
| 20260905154947 | 89 | 288 | 0.0 | 0.0 | 0.00 | 0.00 | 0.00 | 74 | 1013.5 |
| 20260905154442 | 92 | 306 | 1.7 | 1.7 | 0.00 | 0.00 | 0.00 | 71 | 1013.9 |
| 20260905153938 | 91 | 204 | 0.0 | 0.0 | 0.00 | 0.00 | 0.00 | 71 | 1013.9 |
| 20260905153434 | 91 | 322 | 0.0 | 0.0 | 0.00 | 0.00 | 0.00 | 73 | 1013.9 |
| 20260905152934 | 91 | 353 | 1.7 | 1.7 | 0.00 | 0.00 | 0.00 | 71 | 1013.5 |
| 20260905152434 | 90 | 20 | 0.9 | 0.9 | 0.00 | 0.00 | 0.00 | 72 | 1013.5 |
| 20260905151928 | 89 | 216 | 3.5 | 3.5 | 0.00 | 0.00 | 0.00 | 74 | 1013.5 |
| 20260905151424 | 89 | 193 | 1.7 | 1.7 | 0.00 | 0.00 | 0.00 | 76 | 1013.5 |
| 20260905150919 | 89 | 204 | 2.6 | 2.6 | 0.00 | 0.00 | 0.00 | 76 | 1013.5 |
| 20260905150419 | 88 | 162 | 0.9 | 0.9 | 0.00 | 0.00 | 0.00 | 76 | 1013.5 |
| 20260905145915 | 87 | 212 | 0.0 | 0.0 | 0.00 | 0.00 | 0.00 | 80 | 1013.9 |
| 20260905145410 | 88 | 295 | 0.0 | 0.0 | 0.00 | 0.00 | 0.00 | 78 | 1013.9 |
| 20260905144909 | 87 | 12 | 2.6 | 2.6 | 0.00 | 0.00 | 0.00 | 80 | 1013.9 |
| 20260905144405 | 86 | 113 | 0.0 | 0.0 | 0.00 | 0.00 | 0.00 | 82 | 1013.9 |
| 20260905143904 | 87 | 341 | 3.5 | 3.5 | 0.00 | 0.00 | 0.00 | 81 | 1013.9 |
| 20260905143358 | 86 | 194 | 1.7 | 1.7 | 0.00 | 0.00 | 0.00 | 83 | 1013.9 |
| 20260905142857 | 86 | 283 | 1.7 | 1.7 | 0.00 | 0.00 | 0.00 | 84 | 1013.9 |
| 20260905142356 | 86 | 198 | 0.0 | 0.0 | 0.00 | 0.00 | 0.00 | 84 | 1013.9 |
| 20260905141852 | 86 | 143 | 0.0 | 0.0 | 0.00 | 0.00 | 0.00 | 84 | 1013.9 |
| 20260905141347 | 85 | 127 | 1.7 | 1.7 | 0.00 | 0.00 | 0.00 | 83 | 1013.9 |
| 20260905140844 | 85 | 228 | 0.0 | 0.0 | 0.00 | 0.00 | 0.00 | 85 | 1013.9 |
| 20260905140344 | 85 | 228 | 0.0 | 0.0 | 0.00 | 0.00 | 0.00 | 86 | 1013.9 |
| 20260905135842 | 84 | 198 | 1.7 | 1.7 | 0.00 | 0.00 | 0.00 | 88 | 1013.9 |
| 20260905135338 | 84 | 204 | 0.0 | 0.0 | 0.00 | 0.00 | 0.00 | 89 | 1013.9 |
| 20260905134833 | 84 | 12 | 1.7 | 1.7 | 0.00 | 0.00 | 0.00 | 89 | 1013.9 |
| 20260905134326 | 84 | 282 | 0.9 | 0.9 | 0.00 | 0.00 | 0.00 | 89 | 1014.2 |
| 20260905133821 | 84 | 228 | 0.0 | 0.0 | 0.00 | 0.00 | 0.00 | 90 | 1014.2 |
| 20260905133316 | 84 | 204 | 1.7 | 1.7 | 0.00 | 0.00 | 0.00 | 90 | 1014.2 |
| 20260905132815 | 83 | 290 | 1.7 | 1.7 | 0.00 | 0.00 | 0.00 | 91 | 1013.9 |
| 20260905132311 | 83 | 259 | 0.0 | 0.0 | 0.00 | 0.00 | 0.00 | 92 | 1013.9 |
| 20260905131805 | 83 | 272 | 0.0 | 0.0 | 0.00 | 0.00 | 0.00 | 93 | 1013.9 |
| 20260905131301 | 82 | 292 | 0.0 | 0.0 | 0.00 | 0.00 | 0.00 | 94 | 1013.9 |
| 20260905130755 | 82 | 186 | 1.7 | 1.7 | 0.00 | 0.00 | 0.00 | 94 | 1013.9 |
| 20260905130254 | 82 | 247 | 0.0 | 0.0 | 0.00 | 0.00 | 0.00 | 95 | 1013.9 |
| 20260905125750 | 81 | 335 | 2.6 | 3.5 | 0.00 | 0.00 | 0.00 | 95 | 1013.9 |
| 20260905125244 | 81 | 315 | 0.0 | 0.0 | 0.00 | 0.00 | 0.00 | 96 | 1013.9 |
| 20260905124741 | 81 | 258 | 0.0 | 0.0 | 0.00 | 0.00 | 0.00 | 97 | 1013.9 |
| 20260905124237 | 80 | 187 | 0.0 | 0.0 | 0.00 | 0.00 | 0.00 | 98 | 1013.9 |
| 20260905123732 | 80 | 265 | 0.0 | 0.0 | 0.00 | 0.00 | 0.00 | 99 | 1013.9 |
| 20260905123229 | 80 | 255 | 0.0 | 0.0 | 0.00 | 0.00 | 0.00 | 99 | 1013.9 |
| 20260905122729 | 79 | 255 | 0.0 | 0.0 | 0.00 | 0.00 | 0.00 | 99 | 1013.9 |
| 20260905122229 | 79 | 288 | 0.0 | 0.0 | 0.00 | 0.00 | 0.00 | 99 | 1013.9 |
| 20260905121724 | 79 | 305 | 0.0 | 0.0 | 0.00 | 0.00 | 0.00 | 99 | 1013.9 |
| 20260905121220 | 78 | 276 | 0.0 | 0.0 | 0.00 | 0.00 | 0.00 | 99 | 1013.9 |
| 20260905120719 | 78 | 277 | 0.0 | 0.0 | 0.00 | 0.00 | 0.00 | 99 | 1013.9 |
| 20260905120214 | 78 | 288 | 0.0 | 0.0 | 0.00 | 0.00 | 0.00 | 99 | 1013.9 |
| 20260905115714 | 78 | 288 | 0.0 | 0.0 | 0.00 | 0.00 | 0.00 | 99 | 1013.9 |